Simultaneous Nadir Overpasses (SNOs) Predictions

Prediction of SNOs between LANDSAT-8 and METOP-A Satellite Orbit:

Table of predicted SNOs for the next 14.0 days since TLE Epoch: 4/3/2021
Index Date (LANDSAT-8) Time (LANDSAT-8) Lat,Lon (LANDSAT-8) SZA (LANDSAT-8 ) Date (METOP-A) Time (METOP-A) Lat,Lon (METOP-A) SZA (METOP-A ) Distance(km) Time Diff (sec)
1 04/04/2021 20:23:29 81.42, -81.23 77.81 04/04/2021 20:23:05 81.41, -81.31 77.79 1.72 24
2 04/04/2021 21:12:56 -81.42, 86.32 102.22 04/04/2021 21:13:45 -81.41, 86.20 102.22 2.37 49
3 04/07/2021 15:57:44 81.41, -15.08 76.74 04/07/2021 15:57:27 81.42, -15.21 76.72 2.38 17
4 04/07/2021 16:47:11 -81.41, 152.50 103.29 04/07/2021 16:48:07 -81.41, 152.34 103.28 2.89 56
5 04/10/2021 11:31:57 81.41, 51.42 75.72 04/10/2021 11:31:47 81.41, 51.27 75.71 2.54 10
6 04/10/2021 12:21:24 -81.41,-140.97 104.30 04/10/2021 12:22:27 -81.41,-141.16 104.29 3.15 63
7 04/13/2021 07:06:11 81.41, 117.89 74.73 04/13/2021 07:06:08 81.41, 117.73 74.71 2.65 3
8 04/13/2021 07:55:38 -81.41, -74.47 105.29 04/13/2021 07:56:48 -81.40, -74.66 105.29 3.34 70
9 04/16/2021 01:50:59 -81.41, 16.69 106.25 04/16/2021 01:49:49 -81.42, 16.55 106.29 2.38 70
10 04/16/2021 02:40:25 81.41,-175.68 73.74 04/16/2021 02:40:29 81.41,-175.83 73.72 2.52 4



Historial Predications of SNOs between LANDSAT-8 and METOP-A
